{"data":{"norad_id":47808,"intl_designator":"2021-018X","name":"STARLINK-2389","alt_names":[],"object_type":"PAYLOAD","status":"ACTIVE","operator":null,"country":"US","launch_date":"2021-03-11","launch_site_code":"AFETR","launch_vehicle":null,"mission":null,"orbit_class":"UNKNOWN","rcs_meters":null,"size_class":null,"mass_kg":null,"dimensions":null,"purposes":["comms"],"wikipedia_slug":null,"has_3d_model":false,"image_url":null,"decayed_at":null,"tle_current":{"epoch":"2026-09-19T21:57:32.873184Z","epoch_age_seconds":76332,"freshness":"FRESH","line1":"1 47808U 21018X   26262.91496381  .00004718  00000+0  16364-3 0  9990","line2":"2 47808  53.1599  58.7559 0001057  80.7446 279.3675 15.31714916306547","mean_motion":15.31714916,"eccentricity":0.0001057,"inclination_deg":53.1599,"raan_deg":58.7559,"arg_perigee_deg":80.7446,"mean_anomaly_deg":279.3675,"bstar":0.00016364,"rev_number":30654,"period_min":94.012272450835,"perigee_km":469.97161016803,"apogee_km":471.41945336525,"semimajor_km":6848.8325317666,"source":"CELESTRAK","updated_at":"2026-09-20T09:00:38.748134Z"}}}